Regional Weather Roundup
Issued by NWS

Home | Current Version | Previous Version | Text Only | Print | Product List | Glossary On
Versions: 1 2 3 4 5 6 7 8 9 10 11 12 13 14 15 16 17 18 19 20 21 22 23 24 25 26 27
000
ASUS42 KKEY 190910
RWRKEY

FLORIDA REGIONAL WEATHER ROUNDUP FOR THE FLORIDA KEYS
NATIONAL WEATHER SERVICE KEY WEST FLORIDA
500 AM EDT SAT APR 19 2014

...SOUTH FLORIDA AND THE KEYS...

CITY           SKY/WX    TMP DP  RH WIND       PRES   REMARKS
FORT MYERS     PTCLDY    75  68  78 W12       29.90R
SW REGIONAL AP PTCLDY    74  68  81 W7        29.91R
NAPLES           N/A     72 N/A N/A S6        29.92R
MIAMI          LGT RAIN  78  73  84 S9        29.92S
WEST KENDALL   CLOUDY    77  73  87 SW5       29.91F
HOMESTEAD      CLOUDY    78  69  74 S7        29.91F
MARATHON       CLEAR     79  76  90 S8        29.92S
BOCA CHICA NAS CLOUDY    78  75  90 SW13      29.93S
KEY WEST INTL  MOCLDY    79  75  87 SW10      29.93S

...INTERNATIONAL WEATHER...

CITY           SKY/WX    TMP DP  RH WIND       PRES   REMARKS
NASSAU BAHAMAS NOT AVBL
CANCUN MEXICO  MOCLDY    70  70 100 N6        29.99R
COZUMEL MEXICO PTCLDY    72  70  94 N10       29.99R

ADJACENT COASTAL WATERS...

STATION/POSITION TIME  SKY/WX   TEMP    WIND        PRES    WAVE
                                AIR SEA DIR/SP/G            HT/PER
                 (UTC)          (F)     (DEG/KT/KT) (MB)    (FT/S)
PULASKI SHOAL LI NOT AVBL
SAND KEY         NOT AVBL
SOMBRERO KEY     0900            79     220/ 14/ 15 1014.0R
LONG KEY         0900            79 81  190/ 16/ 18 1013.9R
MOLASSES REEF    0900            79 80  170/ 17/ 19 1012.8F
FOWEY ROCKS      0900            79 78  170/ 21/ 22 1013.0R
Buoy 42080       NOT AVBL

$$



USA.gov is the U.S. government's official web portal to all federal, state and local government web resources and services.